Regional Weather Roundup
Issued by NWS

Home | Current Version | Previous Version | Text Only | Print | Product List | Glossary On
Versions: 1 2 3 4 5 6 7 8 9 10 11 12 13 14 15 16 17 18 19 20 21 22 23 24 25 26 27 28 29 30 31 32 33 34 35 36 37 38 39 40 41 42 43 44 45 46 47 48 49 50
206
ASUS43 KMKX 250821
RWRWI

WISCONSIN REGIONAL WEATHER ROUNDUP
NATIONAL WEATHER SERVICE MILWAUKEE/SULLIVAN WI
300 AM CDT THU AUG 25 2016

NOTE: "FAIR" INDICATES FEW OR NO CLOUDS BELOW 12,000 FEET WITH NO
SIGNIFICANT WEATHER AND/OR OBSTRUCTIONS TO VISIBILITY.

WIZ001-002-006>008-014>016-023>028-250900-
NORTHWEST WISCONSIN

CITY           SKY/WX    TMP DP  RH WIND       PRES   REMARKS
SUPERIOR ARPT  CLEAR     57  56  95 W7        29.94F
ASHLAND        CLEAR     57  54  89 SW7       29.94S
HAYWARD        PTCLDY    57  55  93 SW3       29.98S
SIREN          CLEAR     62  56  82 W6        29.99S
CUMBERLAND     PTCLDY    55  54  94 CALM      30.01R
RICE LAKE      PTCLDY    58  56  91 CALM      30.01S
CHETEK         NOT AVBL
LADYSMITH      PTCLDY    60  57  89 SW3       30.01R
EAU CLAIRE     CLOUDY    63  59  87 W3        29.99S
MENOMONIE      CLOUDY    64  58  82 W6        30.01S
NEW RICHMOND   CLOUDY    59  58  96 CALM      30.02R
OSCEOLA        CLEAR     57  57 100 CALM      30.03S
$$

WIZ003>005-009-010-017-018-250900-
NORTH CENTRAL WISCONSIN

CITY           SKY/WX    TMP DP  RH WIND       PRES   REMARKS
MANITOWISH WTR NOT AVBL
ARBOR VITAE    MOCLDY    60  57  91 CALM      29.97R
WOODRUFF       MOCLDY    60  57  91 CALM      29.97R
RHINELANDER    PTCLDY    58  58 100 W7        29.97R
EAGLE RIVER    PTCLDY    59  58  96 W5        29.95R
LAND O LAKES   CLOUDY    57  56  99 CALM      29.96R FOG
PHILLIPS       CLEAR     57  57  97 CALM      29.98S
TOMAHAWK       PTCLDY    56  54  94 W3        29.98R
MEDFORD        CLOUDY    59  59 100 W3        30.00R
MERRILL        PTCLDY    60  59  97 W6        29.99R
$$

WIZ029-030-035-036-043>047-250900-
CENTRAL WISCONSIN

CITY           SKY/WX    TMP DP  RH WIND       PRES   REMARKS
WAUSAU         CLOUDY    63  58  83 NW10      29.96S
MOSINEE        CLOUDY    61  59  94 W3        29.99S
MARSHFIELD     CLOUDY    62  57  83 W6        29.99S
STEVENS POINT  CLOUDY    63  59  87 W5        29.99R
WAUPACA        CLOUDY    68  63  83 W3        29.96S
WAUTOMA        PTCLDY    65  63  93 W3        29.97F
WISC RAPIDS    PTCLDY    64  61  90 N6        29.99S
CAMP DOUGLAS   CLOUDY    63  61  93 W5        29.99R
$$

WIZ011>013-019>022-031-037>040-048>050-250900-
NORTHEAST WISCONSIN

CITY           SKY/WX    TMP DP  RH WIND       PRES   REMARKS
ANTIGO         MOCLDY    60  58  95 CALM      29.97F
SHAWANO        CLOUDY    66  62  86 W5        29.95S
OCONTO         NOT AVBL
STURGEON BAY   CLEAR     67  65  93 W6        29.93R
GREEN BAY      CLEAR     66  66 100 NW8       29.93S
MANITOWOC      PTCLDY    67  66  97 CALM      29.93F
APPLETON       PTCLDY    63  63 100 W9        29.94S
CLINTONVILLE   CLEAR     64  63  94 NW6       29.94S
OSHKOSH        PTCLDY    68  65  90 W5        29.95S
$$

WIZ032>034-041-042-053>061-250900-
SOUTHWEST WISCONSIN

CITY           SKY/WX    TMP DP  RH WIND       PRES   REMARKS
LA CROSSE      MOCLDY    65  32  29 N5        30.00R
SPARTA         PTCLDY    61  60  98 CALM      30.01R
VIROQUA        MOCLDY    63  60  91 NW3       30.02S
BOSCOBEL       CLOUDY    68  63  84 CALM      30.01R
PRAIRIE DU CHI CLOUDY    67  61  81 CALM      30.01R
PLATTEVILLE    CLOUDY    69  69  98 NW3       30.01R
$$

WIZ056-057-062-063-064-067-068-250900-
SOUTH CENTRAL WISCONSIN

CITY           SKY/WX    TMP DP  RH WIND       PRES   REMARKS
REEDSBURG      NOT AVBL
BARABOO/DELLS  CLOUDY    66  62  86 NW3       29.99R
LONE ROCK      CLOUDY    68  65  90 W5        29.99S
MINERAL POINT  CLOUDY    70  68  94 NW3       30.01R
MADISON        CLOUDY    69  68  96 NW5       29.97S
MIDDLETON      CLOUDY    69  69  99 NW3       29.99F
WATERTOWN      CLOUDY    71  71 100 CALM      29.96S
MONROE         CLOUDY    72  68  88 NW6       29.98S
JANESVILLE     CLOUDY    73  70  88 CALM      29.96S
$$

WIZ051-052-058>065-066-070>072-250900-
SOUTHEAST WISCONSIN

CITY           SKY/WX    TMP DP  RH WIND       PRES   REMARKS
MILWAUKEE      TSTM      76  71  85 CALM      29.97R
WAUKESHA       LGT RAIN  70  68  94 NW3       29.97R
MILWAUKEE/TIMM CLOUDY    72  64  78 NW3       29.97R
RACINE         TSTM      73  70  90 VRB7      29.99R VSB 1
BURLINGTON     CLOUDY    68  67  97 SE8       29.97S
KENOSHA        LGT RAIN  70  68  93 NW12G20   29.97R
FOND DU LAC    CLOUDY    68  66  93 W6        29.95F
SHEBOYGAN      MOCLDY    68  66  93 NW5       29.94S
WEST BEND      CLOUDY    70  66  88 NW3       29.96R
JUNEAU         MOCLDY    68  66  93 W3        29.98R
$$

LSZ147-162-250900-
LAKE SUPERIOR

STATION/POSITION TIME  TEMP    WIND        PRES    WAVE
                       AIR SEA DIR/SP/G            HT/PER
                 (UTC) (F)     (DEG/KT/KT) (MB)    (FT/S)
W MID LAKE BUOY  0750   69 68  260/ 16/ 19 1010.7R   2/ 4
DEVILS ISLAND    0800   66     250/ 11/ 14 1012.5S
PORT WING        0700   63     190/  6/  9 1013.9
SAXON HARBOR     0700   64     200/  7/ 11 1013.2R
$$

LMZ867-665-643>646-250900-
LAKE MICHIGAN

STATION/POSITION TIME  TEMP    WIND        PRES    WAVE
                       AIR SEA DIR/SP/G            HT/PER
                 (UTC) (F)     (DEG/KT/KT) (MB)    (FT/S)
CHAMBERS ISLAND  0700   69     220/  4/  9 1012.2S
S GREEN BAY BUOY 0800   71 72  270/ 12/ 14 1012.7R
N MID LAKE BUOY  0750   70 69  240/ 10/ 12 1011.2R   3/ 6
NORTHPORT PIER   0700   71     270/  6/ 11 1011.9S
SISTER BAY       0707   71     290/ 12/ 14   N/A
KEWAUNEE LAKESHO 0700   69     290/  3/  4 1012.8S
SHEBOYGAN LAKESH 0800   72     290/  7/  9 1012.9F
PORT WASHINGTON  0700   74     290/  3/  4 1014.6
ATWATER BUOY     0800   63 46  260/  4/  4   N/A
MILWAUKEE LAKESH 0710   65     100/  1/  2   N/A
S MID LAKE BUOY  0750   75 75  210/ 10/ 12 1012.8F   1/ 3
KENOSHA   LAKESH 0800   74     280/ 12/ 19 1014.2R
$$

TC  - TEMPERATURE IN CELSIUS
VSB - VISIBILITY IN STATUTE MILES
WCI - WIND CHILL INDEX
HX  - HEAT INDEX





USA.gov is the U.S. government's official web portal to all federal, state and local government web resources and services.